DW0417 Weather Reports


time (UTC)temp
F
wind
direction
speed
knots
gust
knots
rain 1hr
in
rain 24hr
in
rain mn
in
humidity
%
barometer
mb
20260902222813 87 100 3.5 7.0 0.00 0.00 0.00 25 1013.6
20260902221813 89 169 5.2 9.6 0.00 0.00 0.00 24 1013.2
20260902220812 89 54 6.1 10.4 0.00 0.00 0.00 23 1013.2
20260902215813 89 97 4.3 11.3 0.00 0.00 0.00 24 1013.5
20260902214812 89 46 5.2 10.4 0.00 0.00 0.00 25 1013.7
20260902214248 88 50 4.3 12.2 0.00 0.00 0.00 26 1013.8
20260902213246 89 58 2.6 12.2 0.00 0.00 0.00 25 1013.9
20260902211813 87 79 3.5 9.6 0.00 0.00 0.00 26 1014.1
20260902210813 87 183 4.3 13.9 0.00 0.00 0.00 27 1014.3
20260902210300 87 45 0.9 8.7 0.00 0.00 0.00 26 1014.4
20260902204808 86 63 1.7 4.3 0.00 0.00 0.00 28 1014.8
20260902203806 86 82 4.3 11.3 0.00 0.00 0.00 27 1014.9
20260902202806 86 70 2.6 7.0 0.00 0.00 0.00 27 1015.0
20260902201808 86 136 2.6 9.6 0.00 0.00 0.00 27 1015.0
20260902200807 87 54 5.2 10.4 0.00 0.00 0.00 26 1015.2
20260902195806 87 51 1.7 7.8 0.00 0.00 0.00 28 1015.3
20260902194806 86 170 4.3 13.0 0.00 0.00 0.00 27 1015.5
20260902193806 87 99 5.2 20.0 0.00 0.00 0.00 28 1015.6
20260902193724 86 321 4.3 10.4 0.00 0.00 0.00 28 1015.7
20260902191801 86 73 4.3 13.0 0.00 0.00 0.00 28 1015.9
20260902190800 85 83 5.2 13.9 0.00 0.00 0.00 28 1015.8
20260902185801 85 71 4.3 10.4 0.00 0.00 0.00 30 1016.2
20260902185734 86 61 3.5 7.8 0.00 0.00 0.00 30 1016.3
20260902183802 85 46 3.5 7.8 0.00 0.00 0.00 30 1016.5
20260902182800 84 79 5.2 11.3 0.00 0.00 0.00 29 1016.6
20260902182722 85 52 3.5 11.3 0.00 0.00 0.00 30 1016.9
20260902180802 84 70 4.3 10.4 0.00 0.00 0.00 30 1017.1
20260902175800 84 131 3.5 7.8 0.00 0.00 0.00 30 1017.2
20260902174755 83 83 2.6 6.1 0.00 0.00 0.00 30 1017.4
20260902173753 83 57 3.5 10.4 0.00 0.00 0.00 32 1017.6
20260902172754 82 94 5.2 10.4 0.00 0.00 0.00 34 1017.6
20260902171756 81 48 4.3 9.6 0.00 0.00 0.00 34 1017.7
20260902170754 81 46 6.1 10.4 0.00 0.00 0.00 36 1017.7
20260902165753 81 92 3.5 9.6 0.00 0.00 0.00 37 1017.9
20260902164752 80 92 4.3 9.6 0.00 0.00 0.00 37 1017.9
20260902163753 79 62 7.0 11.3 0.00 0.00 0.00 38 1018.0
20260902162754 79 105 7.0 15.6 0.00 0.00 0.00 40 1017.9
20260902161748 79 105 6.1 11.3 0.00 0.00 0.00 39 1018.0
20260902160747 78 86 6.1 12.2 0.00 0.00 0.00 41 1018.0
20260902155747 78 85 4.3 10.4 0.00 0.00 0.00 40 1018.0
20260902155226 77 84 5.2 9.6 0.00 0.00 0.00 40 1018.0
20260902154715 77 92 5.2 10.4 0.00 0.00 0.00 40 1017.9
20260902152747 76 77 5.2 11.3 0.00 0.00 0.00 43 1017.9
20260902151746 76 23 2.6 8.7 0.00 0.00 0.00 44 1017.9
20260902150747 75 79 3.5 7.0 0.00 0.00 0.00 48 1017.9
20260902145746 74 71 2.6 7.8 0.00 0.00 0.00 49 1017.8
20260902145217 72 47 3.5 6.1 0.00 0.00 0.00 54 1017.8
20260902144212 71 63 1.7 4.3 0.00 0.00 0.00 56 1017.8
20260902142740 70 80 0.9 4.3 0.00 0.00 0.00 55 1017.8
20260902141741 68 82 1.7 5.2 0.00 0.00 0.00 58 1017.8
20260902140741 67 61 2.6 4.3 0.00 0.00 0.00 58 1017.8
20260902135741 66 82 0.9 2.6 0.00 0.00 0.00 60 1017.8
20260902134739 64 82 0.9 3.5 0.00 0.00 0.00 59 1017.8
20260902133741 63 87 0.0 0.9 0.00 0.00 0.00 63 1017.8
20260902133657 62 87 0.9 2.6 0.00 0.00 0.00 64 1017.8
20260902131735 61 87 0.0 0.0 0.00 0.00 0.00 62 1017.6
20260902130732 62 342 0.0 0.0 0.00 0.00 0.00 59 1017.3
20260902130212 62 245 0.0 0.0 0.00 0.00 0.00 58 1017.3
20260902124733 62 225 0.9 3.5 0.00 0.00 0.00 59 1017.2
20260902124202 60 231 0.9 3.5 0.00 0.00 0.00 62 1017.2
20260902122730 58 229 0.9 4.3 0.00 0.00 0.00 69 1017.2
20260902121730 56 99 0.0 3.5 0.00 0.00 0.00 73 1017.2
20260902120730 55 305 0.0 1.7 0.00 0.00 0.00 74 1017.0
20260902120210 56 193 0.0 0.9 0.00 0.00 0.00 74 1017.1
20260902114730 57 195 0.9 3.5 0.00 0.00 0.00 71 1017.0
20260902113731 58 162 0.0 1.7 0.00 0.00 0.00 69 1017.0
20260902113211 59 231 0.0 0.9 0.00 0.00 0.00 69 1017.0
20260902111726 59 232 0.0 1.7 0.00 0.00 0.00 67 1017.0
20260902111213 58 231 0.9 2.6 0.00 0.00 0.00 70 1017.0
20260902110211 58 205 0.0 1.7 0.00 0.00 0.00 71 1017.0
20260902104726 58 295 0.0 1.7 0.00 0.00 0.00 71 1017.1
20260902103725 57 299 0.9 2.6 0.00 0.00 0.00 73 1017.1
20260902103651 57 53 0.0 0.0 0.00 0.00 0.00 73 1016.9
20260902102159 57 49 0.0 0.0 0.00 0.00 0.00 74 1017.1
20260902100725 58 49 0.0 0.9 0.00 0.00 0.00 71 1016.9
20260902095725 59 50 0.0 0.9 0.00 0.00 0.00 69 1016.9
20260902094724 60 50 0.0 2.6 0.00 0.00 0.00 67 1016.9
20260902093719 60 224 0.0 1.7 0.00 0.00 0.00 64 1016.9
20260902092718 60 228 0.0 1.7 0.00 0.00 0.00 65 1016.9
20260902091717 61 195 0.0 0.0 0.00 0.00 0.00 64 1016.7
20260902090717 61 39 0.0 0.0 0.00 0.00 0.00 64 1016.9
20260902090152 61 39 0.0 0.0 0.00 0.00 0.00 66 1016.9
20260902085156 62 39 0.0 0.0 0.00 0.00 0.00 64 1016.7
20260902083717 63 39 0.0 0.0 0.00 0.00 0.00 61 1016.7
20260902082717 64 39 0.0 0.0 0.00 0.00 0.00 59 1016.7
20260902081719 64 39 0.0 1.7 0.00 0.00 0.00 61 1016.6
20260902080713 65 19 1.7 3.5 0.00 0.00 0.00 59 1016.6
20260902080201 66 351 0.0 0.9 0.00 0.00 0.00 54 1016.6
20260902074712 66 225 0.0 0.9 0.00 0.00 0.00 55 1016.6
20260902073711 66 225 0.0 0.9 0.00 0.00 0.00 54 1016.6
20260902072710 69 233 0.0 1.7 0.00 0.00 0.00 48 1016.6
20260902071710 69 229 0.9 2.6 0.00 0.00 0.00 49 1016.7
20260902071152 67 225 0.9 1.7 0.00 0.00 0.00 53 1016.7
20260902065710 67 46 0.0 0.9 0.00 0.00 0.00 51 1016.7
20260902064710 68 46 0.9 1.7 0.00 0.00 0.00 50 1016.7
20260902063704 68 46 0.9 2.6 0.00 0.00 0.00 51 1016.7
20260902062703 67 46 0.0 0.0 0.00 0.00 0.00 52 1016.7
20260902061704 66 46 0.0 0.0 0.00 0.01 0.00 55 1016.9
20260902060703 64 46 0.0 0.9 0.00 0.01 0.00 59 1017.1
20260902055703 64 45 0.0 0.0 0.00 0.01 0.01 58 1017.1
20260902054703 64 46 0.0 0.9 0.00 0.01 0.01 60 1017.1
20260902053704 64 46 0.0 0.0 0.00 0.01 0.01 61 1017.1
20260902052703 65 46 0.0 0.0 0.00 0.01 0.01 63 1017.0
20260902051704 66 46 0.0 0.9 0.00 0.01 0.01 61 1017.1
20260902050659 65 46 0.0 0.9 0.00 0.01 0.01 58 1017.0
20260902045658 66 46 0.0 1.7 0.00 0.01 0.01 62 1017.0
20260902044658 67 46 0.0 0.9 0.00 0.01 0.01 59 1017.2
20260902043658 68 46 0.0 1.7 0.00 0.01 0.01 58 1017.2
20260902042657 67 46 0.0 0.9 0.00 0.01 0.01 57 1017.3
20260902041657 69 46 0.0 1.7 0.00 0.01 0.01 56 1017.3
20260902040659 70 46 0.0 1.7 0.00 0.01 0.01 55 1017.3
20260902040138 69 46 0.0 0.0 0.00 0.01 0.01 55 1017.4
20260902034659 69 46 0.0 0.0 0.00 0.01 0.01 56 1017.4
20260902033654 71 46 0.0 0.0 0.00 0.01 0.01 54 1017.3
20260902032656 72 46 0.0 0.0 0.00 0.01 0.01 52 1017.2
20260902031655 72 46 0.0 0.9 0.00 0.01 0.01 53 1017.2
20260902030657 74 46 0.9 3.5 0.00 0.01 0.01 51 1017.2
20260902025655 74 46 0.0 3.5 0.00 0.01 0.01 49 1017.1
20260902024655 75 46 0.9 6.1 0.00 0.01 0.01 44 1016.9
20260902023655 75 52 0.9 4.3 0.00 0.03 0.01 44 1016.5
20260902022656 76 54 0.9 2.6 0.00 0.03 0.01 44 1016.5
20260902021653 76 65 0.0 2.6 0.00 0.03 0.01 42 1016.4
20260902021134 76 65 0.0 2.6 0.00 0.03 0.01 42 1016.4
20260902015653 78 66 0.9 4.3 0.00 0.03 0.01 38 1016.3
20260902015144 77 79 0.9 3.5 0.00 0.03 0.01 39 1016.2
20260902013652 77 46 0.0 0.9 0.00 0.03 0.01 41 1015.8
20260902012652 79 46 0.0 1.7 0.00 0.03 0.01 38 1015.7
20260902012135 81 46 0.0 3.5 0.00 0.03 0.01 35 1015.7
20260902010653 82 46 0.0 2.6 0.00 0.03 0.01 33 1015.7
20260902005652 82 46 0.9 4.3 0.00 0.03 0.01 34 1015.5
20260902004648 82 47 0.0 2.6 0.00 0.03 0.01 36 1015.7
20260902003646 82 47 0.0 1.7 0.00 0.03 0.01 35 1015.7
20260902002646 82 47 0.9 3.5 0.00 0.03 0.01 34 1015.6
20260902002121 82 47 0.9 4.3 0.00 0.03 0.01 34 1015.7
20260902000646 83 47 0.9 4.3 0.00 0.03 0.01 34 1015.7
20260902000132 84 52 0.0 2.6 0.00 0.03 0.01 32 1015.7
20260901234644 85 52 0.0 3.5 0.00 0.03 0.01 31 1015.6
20260901233644 85 67 0.0 3.5 0.00 0.03 0.01 30 1015.6
20260901232646 86 308 1.7 7.0 0.00 0.03 0.01 28 1015.5
20260901231644 86 44 1.7 5.2 0.00 0.03 0.01 29 1015.5
20260901230644 87 47 0.9 4.3 0.00 0.03 0.01 29 1015.5
20260901225645 86 46 0.9 5.2 0.00 0.03 0.01 30 1015.3
20260901224645 86 53 1.7 5.2 0.00 0.03 0.01 31 1015.3